Powrót do katalogu

FENGYUN 1C DEB

AktywnySSO
NORAD 31906·DEBRIS·🇨🇳 China

Wystrzelony May 10, 1999 z Taiyuan Satellite Launch Center

Loading…

Następne Przeloty (najbliższe 24 godziny)

TLE

ŚwieżeSource: Space-Track

Epoka: Sep 14, 2026, 08:13 UTC

1 31906U 99025CLH 26257.34261291  .00001064  00000-0  45072-3 0  9996
2 31906  98.7045  33.4338 0052672  36.9357 352.7085 14.26803487990576

Śledź FENGYUN 1C DEB w czasie rzeczywistym z AllMySat

Download on the App Store